• en France
  • Liste des pays
  • À 7 jours
  • Température de l'eau
  • Carte satellitaire
  • Carte météo
  • Widgets météo
  • user-avatar
    Se connecter

    Météo par heure à Myza

    Ce jour, 20 Septembre, Jeudi

    Heure Température Précipitation Vent Pression Humidité
    00:00 +16°C° 0 mm 2 m/s 752 mmHg 95%
    01:00 +15°C° 0 mm 2 m/s 752 mmHg 96%
    02:00 +14°C° 0 mm 2 m/s 752 mmHg 97%
    03:00 +14°C° 0 mm 2 m/s 753 mmHg 98%
    04:00 +14°C° 0 mm 2 m/s 753 mmHg 98%
    05:00 +13°C° 0 mm 2 m/s 753 mmHg 98%
    06:00 +14°C° 0 mm 2 m/s 753 mmHg 94%
    07:00 +14°C° 0 mm 3 m/s 753 mmHg 91%
    08:00 +14°C° 0 mm 3 m/s 754 mmHg 87%
    09:00 +17°C° 0 mm 3 m/s 754 mmHg 79%
    10:00 +19°C° 0 mm 3 m/s 754 mmHg 72%
    11:00 +21°C° 0 mm 3 m/s 754 mmHg 64%
    12:00 +22°C° 0 mm 4 m/s 753 mmHg 60%
    13:00 +23°C° 0 mm 4 m/s 753 mmHg 57%
    14:00 +25°C° 0 mm 4 m/s 753 mmHg 53%
    15:00 +24°C° 0 mm 3 m/s 753 mmHg 58%
    16:00 +22°C° 0 mm 3 m/s 753 mmHg 62%
    17:00 +23°C° 0 mm 2 m/s 753 mmHg 67%
    18:00 +20°C° 0 mm 2 m/s 753 mmHg 72%
    19:00 +19°C° 0 mm 2 m/s 753 mmHg 78%
    20:00 +17°C° 0 mm 2 m/s 753 mmHg 83%
    21:00 +17°C° 0 mm 2 m/s 753 mmHg 86%
    22:00 +17°C° 0 mm 2 m/s 753 mmHg 89%
    23:00 +17°C° 0 mm 2 m/s 753 mmHg 91%

    Demain, 21 Septembre, Vendredi

    Heure Température Précipitation Vent Pression Humidité
    00:00 +16°C° 0 mm 2 m/s 753 mmHg 93%
    01:00 +16°C° 0 mm 2 m/s 753 mmHg 94%
    02:00 +16°C° 0 mm 2 m/s 753 mmHg 95%
    03:00 +16°C° 0 mm 2 m/s 753 mmHg 95%
    04:00 +16°C° 0 mm 2 m/s 753 mmHg 95%
    05:00 +16°C° 0 mm 2 m/s 753 mmHg 94%
    06:00 +17°C° 0 mm 3 m/s 753 mmHg 91%
    07:00 +18°C° 0 mm 3 m/s 753 mmHg 87%
    08:00 +19°C° 0 mm 3 m/s 753 mmHg 83%
    09:00 +20°C° 0 mm 3 m/s 753 mmHg 77%
    10:00 +22°C° 0 mm 3 m/s 753 mmHg 71%
    11:00 +25°C° 0 mm 4 m/s 753 mmHg 66%
    12:00 +26°C° 0 mm 4 m/s 753 mmHg 62%
    13:00 +27°C° 0 mm 4 m/s 752 mmHg 58%
    14:00 +27°C° 0 mm 4 m/s 752 mmHg 55%
    15:00 +27°C° 0 mm 4 m/s 752 mmHg 59%
    16:00 +26°C° 0 mm 3 m/s 751 mmHg 64%
    17:00 +25°C° 0 mm 3 m/s 751 mmHg 68%
    18:00 +24°C° 0 mm 3 m/s 751 mmHg 71%
    19:00 +21°C° 0 mm 4 m/s 750 mmHg 73%
    20:00 +20°C° 0 mm 4 m/s 750 mmHg 76%
    21:00 +20°C° 0 mm 4 m/s 750 mmHg 75%
    22:00 +19°C° 0 mm 4 m/s 749 mmHg 74%
    23:00 +19°C° 0 mm 4 m/s 749 mmHg 73%

    Après-demain, 22 Septembre, Samedi

    Heure Température Précipitation Vent Pression Humidité
    00:00 +19°C° 0 mm 5 m/s 748 mmHg 72%
    01:00 +19°C° 0 mm 5 m/s 748 mmHg 72%
    02:00 +19°C° 0 mm 5 m/s 747 mmHg 71%
    03:00 +19°C° 0 mm 5 m/s 746 mmHg 70%
    04:00 +17°C° 0 mm 5 m/s 746 mmHg 69%
    05:00 +17°C° 0 mm 5 m/s 745 mmHg 67%
    06:00 +17°C° 0 mm 6 m/s 745 mmHg 69%
    07:00 +17°C° 0 mm 6 m/s 745 mmHg 71%
    08:00 +17°C° 0 mm 6 m/s 746 mmHg 73%
    09:00 +15°C° 0.5 mm 5 m/s 746 mmHg 78%
    10:00 +13°C° 0.5 mm 4 m/s 747 mmHg 83%
    11:00 +12°C° 0.5 mm 4 m/s 747 mmHg 88%
    12:00 +12°C° 0.2 mm 4 m/s 748 mmHg 85%
    13:00 +13°C° 0.2 mm 4 m/s 748 mmHg 82%
    14:00 +13°C° 0.2 mm 5 m/s 748 mmHg 79%
    15:00 +13°C° 0.1 mm 4 m/s 748 mmHg 78%
    16:00 +13°C° 0.1 mm 4 m/s 749 mmHg 77%
    17:00 +13°C° 0.1 mm 4 m/s 749 mmHg 75%
    18:00 +12°C° 0 mm 4 m/s 749 mmHg 77%
    19:00 +12°C° 0 mm 3 m/s 749 mmHg 78%
    20:00 +11°C° 0 mm 3 m/s 749 mmHg 79%
    21:00 +11°C° 0 mm 3 m/s 749 mmHg 81%
    22:00 +10°C° 0 mm 3 m/s 749 mmHg 83%
    23:00 +9°C° 0 mm 3 m/s 749 mmHg 85%

    23 Septembre, Dimanche

    Heure Température Précipitation Vent Pression Humidité
    00:00 +9°C° 0 mm 3 m/s 749 mmHg 88%
    01:00 +8°C° 0 mm 3 m/s 749 mmHg 90%
    02:00 +8°C° 0 mm 3 m/s 749 mmHg 92%
    03:00 +8°C° 0 mm 3 m/s 748 mmHg 91%
    04:00 +8°C° 0 mm 3 m/s 748 mmHg 91%
    05:00 +7°C° 0 mm 4 m/s 747 mmHg 90%
    06:00 +8°C° 0 mm 4 m/s 747 mmHg 87%
    07:00 +8°C° 0 mm 5 m/s 747 mmHg 84%
    08:00 +9°C° 0 mm 5 m/s 747 mmHg 80%
    09:00 +9°C° 0.1 mm 5 m/s 747 mmHg 78%
    10:00 +10°C° 0.1 mm 5 m/s 746 mmHg 75%
    11:00 +12°C° 0.1 mm 5 m/s 746 mmHg 73%
    12:00 +12°C° 0.3 mm 5 m/s 746 mmHg 70%
    13:00 +13°C° 0.3 mm 5 m/s 746 mmHg 68%
    14:00 +14°C° 0.3 mm 6 m/s 746 mmHg 65%
    15:00 +13°C° 0.2 mm 5 m/s 746 mmHg 69%
    16:00 +12°C° 0.2 mm 4 m/s 746 mmHg 72%
    17:00 +12°C° 0.2 mm 3 m/s 746 mmHg 75%
    18:00 +11°C° 0.1 mm 3 m/s 746 mmHg 79%
    19:00 +10°C° 0.1 mm 3 m/s 746 mmHg 82%
    20:00 +9°C° 0.1 mm 3 m/s 746 mmHg 86%
    21:00 +8°C° 0 mm 3 m/s 746 mmHg 88%
    22:00 +8°C° 0 mm 3 m/s 746 mmHg 89%
    23:00 +8°C° 0 mm 3 m/s 746 mmHg 91%

    24 Septembre, Lundi

    Heure Température Précipitation Vent Pression Humidité
    00:00 +8°C° 0 mm 2 m/s 745 mmHg 92%
    01:00 +8°C° 0 mm 2 m/s 745 mmHg 93%
    02:00 +8°C° 0 mm 2 m/s 744 mmHg 94%
    03:00 +8°C° 0.2 mm 2 m/s 744 mmHg 94%
    04:00 +7°C° 0.2 mm 2 m/s 743 mmHg 95%
    05:00 +7°C° 0.2 mm 2 m/s 742 mmHg 95%
    06:00 +8°C° 1 mm 2 m/s 742 mmHg 95%
    07:00 +8°C° 1 mm 3 m/s 741 mmHg 95%
    08:00 +7°C° 1 mm 4 m/s 740 mmHg 94%
    09:00 +7°C° 2.5 mm 4 m/s 739 mmHg 94%
    10:00 +7°C° 2.5 mm 5 m/s 738 mmHg 94%
    11:00 +7°C° 2.5 mm 5 m/s 737 mmHg 94%
    12:00 +5°C° 4.2 mm 6 m/s 736 mmHg 94%
    13:00 +5°C° 4.2 mm 6 m/s 735 mmHg 94%
    14:00 +5°C° 4.2 mm 7 m/s 734 mmHg 94%
    15:00 +5°C° 3.1 mm 7 m/s 734 mmHg 93%
    16:00 +5°C° 3.1 mm 8 m/s 735 mmHg 92%
    17:00 +5°C° 3.1 mm 8 m/s 735 mmHg 91%
    18:00 +5°C° 1.3 mm 8 m/s 736 mmHg 89%
    19:00 +5°C° 1.3 mm 8 m/s 737 mmHg 88%
    20:00 +5°C° 1.3 mm 8 m/s 738 mmHg 86%
    21:00 +5°C° 0.1 mm 8 m/s 739 mmHg 85%
    22:00 +5°C° 0.1 mm 7 m/s 740 mmHg 83%
    23:00 +4°C° 0.1 mm 7 m/s 741 mmHg 82%

    25 Septembre, Mardi

    Heure Température Précipitation Vent Pression Humidité
    00:00 +4°C° 0 mm 7 m/s 742 mmHg 80%
    01:00 +4°C° 0 mm 6 m/s 743 mmHg 79%
    02:00 +3°C° 0 mm 6 m/s 744 mmHg 77%
    03:00 +3°C° 0 mm 6 m/s 745 mmHg 76%
    04:00 +3°C° 0 mm 6 m/s 745 mmHg 76%
    05:00 +3°C° 0 mm 6 m/s 746 mmHg 75%
    06:00 +3°C° 0 mm 6 m/s 747 mmHg 72%
    07:00 +3°C° 0 mm 6 m/s 747 mmHg 68%
    08:00 +4°C° 0 mm 6 m/s 748 mmHg 65%
    09:00 +5°C° 0 mm 6 m/s 749 mmHg 60%
    10:00 +7°C° 0 mm 6 m/s 749 mmHg 55%
    11:00 +9°C° 0 mm 6 m/s 749 mmHg 50%
    12:00 +9°C° 0.1 mm 6 m/s 750 mmHg 52%
    13:00 +9°C° 0.1 mm 5 m/s 750 mmHg 53%
    14:00 +10°C° 0.1 mm 5 m/s 750 mmHg 55%
    15:00 +10°C° 0.1 mm 4 m/s 750 mmHg 60%
    16:00 +9°C° 0.1 mm 3 m/s 750 mmHg 65%
    17:00 +9°C° 0.1 mm 3 m/s 751 mmHg 71%
    18:00 +8°C° 0.1 mm 2 m/s 751 mmHg 76%
    19:00 +7°C° 0.1 mm 2 m/s 752 mmHg 81%
    20:00 +6°C° 0.1 mm 2 m/s 752 mmHg 86%
    21:00 +6°C° 0.1 mm 2 m/s 753 mmHg 88%
    22:00 +6°C° 0.1 mm 2 m/s 753 mmHg 90%
    23:00 +6°C° 0.1 mm 2 m/s 753 mmHg 92%
    Voir plus